SHU5653 UIII-UHHH

Flight info

Callsign SHU5653
Flight time 2h 49m
Altitude 35000
Route GOLOS A810 KUDAR P873 KU P873 NIKTO G229 GU N992 TORMA A946 IVADA
Aircraft A319/M-SDE3FGHIRWY/LB1

Departure

Time 2026-05-09 14:19
Airport Irkutsk International Airport (UIII)

Arrival

Time 2026-05-09 17:08
Airport Khabarovsk Novy Airport (UHHH)
Time Latitude Longitude Altitude Speed Heading
2026-05-09 13:39 52.27117 104.36791 1558 ft 0 kts 199°
2026-05-09 14:14 52.27098 104.36780 1585 ft 5 kts 200°
2026-05-09 14:15 52.27067 104.36779 1585 ft 4 kts 158°
2026-05-09 14:15 52.27059 104.36811 1585 ft 4 kts 107°
2026-05-09 14:15 52.27047 104.36869 1584 ft 8 kts 109°
2026-05-09 14:15 52.27026 104.36963 1584 ft 9 kts 109°
2026-05-09 14:16 52.27007 104.37054 1584 ft 8 kts 109°
2026-05-09 14:16 52.26994 104.37109 1585 ft 8 kts 109°
2026-05-09 14:16 52.26998 104.37215 1585 ft 7 kts 53°
2026-05-09 14:16 52.27024 104.37273 1585 ft 6 kts 54°
2026-05-09 14:17 52.27049 104.37329 1585 ft 8 kts 54°
2026-05-09 14:17 52.27091 104.37425 1586 ft 10 kts 54°
2026-05-09 14:17 52.27129 104.37511 1587 ft 9 kts 54°
2026-05-09 14:17 52.27151 104.37561 1587 ft 7 kts 54°
2026-05-09 14:18 52.27189 104.37650 1588 ft 7 kts 64°
2026-05-09 14:18 52.27188 104.37694 1588 ft 5 kts 112°
2026-05-09 14:18 52.27166 104.37774 1590 ft 22 kts 114°
2026-05-09 14:18 52.27010 104.38357 1605 ft 88 kts 113°
2026-05-09 14:19 52.26692 104.39549 1638 ft 139 kts 114°
2026-05-09 14:19 52.26249 104.41211 1720 ft 176 kts 114°
2026-05-09 14:19 52.25765 104.43023 2344 ft 172 kts 111°
2026-05-09 14:19 52.25317 104.44837 2909 ft 173 kts 103°
2026-05-09 14:20 52.25261 104.46775 3377 ft 173 kts 84°
2026-05-09 14:20 52.25349 104.48737 3866 ft 175 kts 83°
2026-05-09 14:20 52.25452 104.50819 4091 ft 195 kts 83°
2026-05-09 14:21 52.25678 104.55766 4405 ft 244 kts 84°
2026-05-09 14:21 52.25795 104.58660 4718 ft 266 kts 85°
2026-05-09 14:21 52.25912 104.61739 5341 ft 276 kts 85°
2026-05-09 14:21 52.26024 104.64895 6069 ft 282 kts 86°
2026-05-09 14:22 52.26132 104.68116 6795 ft 287 kts 85°
2026-05-09 14:22 52.26240 104.71385 7524 ft 291 kts 85°
2026-05-09 14:22 52.26350 104.74698 8266 ft 294 kts 85°
2026-05-09 14:22 52.26462 104.78054 9008 ft 298 kts 84°
2026-05-09 14:23 52.26573 104.81452 9744 ft 302 kts 84°
2026-05-09 14:23 52.26689 104.84935 10200 ft 317 kts 84°
2026-05-09 14:23 52.26815 104.88651 10375 ft 340 kts 84°
2026-05-09 14:23 52.26945 104.92587 10522 ft 362 kts 84°
2026-05-09 14:24 52.27076 104.96753 10990 ft 372 kts 84°
2026-05-09 14:24 52.27204 105.00995 11629 ft 376 kts 84°
2026-05-09 14:24 52.27334 105.05282 12284 ft 380 kts 84°
2026-05-09 14:24 52.27464 105.09613 12950 ft 383 kts 84°
2026-05-09 14:25 52.27592 105.13987 13594 ft 387 kts 84°
2026-05-09 14:25 52.27720 105.18393 14161 ft 391 kts 84°
2026-05-09 14:25 52.27850 105.22853 14727 ft 395 kts 84°
2026-05-09 14:25 52.27978 105.27358 15299 ft 399 kts 84°
2026-05-09 14:26 52.28107 105.31896 15866 ft 402 kts 84°
2026-05-09 14:26 52.28234 105.36476 16429 ft 406 kts 85°
2026-05-09 14:26 52.28345 105.41099 17011 ft 409 kts 85°
2026-05-09 14:26 52.28443 105.45770 17574 ft 412 kts 85°
2026-05-09 14:27 52.28533 105.50469 18135 ft 416 kts 85°
2026-05-09 14:27 52.28619 105.55213 18615 ft 420 kts 85°
2026-05-09 14:27 52.28705 105.59995 19097 ft 423 kts 85°
2026-05-09 14:27 52.28793 105.64807 19587 ft 425 kts 85°
2026-05-09 14:28 52.28880 105.69660 20064 ft 428 kts 85°
2026-05-09 14:28 52.28965 105.74537 20536 ft 431 kts 85°
2026-05-09 14:28 52.29053 105.79440 20996 ft 433 kts 85°
2026-05-09 14:28 52.29139 105.84376 21442 ft 436 kts 85°
2026-05-09 14:29 52.29223 105.89340 21882 ft 439 kts 85°
2026-05-09 14:29 52.29306 105.94340 22312 ft 441 kts 85°
2026-05-09 14:29 52.29386 105.99367 22737 ft 444 kts 85°
2026-05-09 14:29 52.29466 106.04358 23164 ft 446 kts 85°
2026-05-09 14:30 52.29547 106.09431 23584 ft 449 kts 85°
2026-05-09 14:30 52.29625 106.14542 23942 ft 451 kts 85°
2026-05-09 14:30 52.29700 106.19673 24294 ft 453 kts 85°
2026-05-09 14:30 52.29705 106.19984 24313 ft 453 kts 85°
2026-05-09 14:31 52.29758 106.23875 24566 ft 454 kts 85°
2026-05-09 14:31 52.29824 106.29045 24885 ft 456 kts 85°
2026-05-09 14:31 52.29887 106.34245 25197 ft 458 kts 85°
2026-05-09 14:32 52.29950 106.39456 25500 ft 460 kts 85°
2026-05-09 14:32 52.30018 106.44688 25806 ft 461 kts 84°
2026-05-09 14:32 52.30372 106.49888 26101 ft 458 kts 75°
2026-05-09 14:32 52.31133 106.54926 26407 ft 457 kts 70°
2026-05-09 14:33 52.31962 106.59948 26722 ft 458 kts 70°
2026-05-09 14:33 52.32786 106.64984 26994 ft 461 kts 70°
2026-05-09 14:33 52.33615 106.70067 27229 ft 463 kts 70°
2026-05-09 14:33 52.34436 106.75110 27492 ft 465 kts 70°
2026-05-09 14:34 52.35266 106.80244 27768 ft 467 kts 70°
2026-05-09 14:34 52.36093 106.85392 28035 ft 469 kts 70°
2026-05-09 14:34 52.36918 106.90556 28304 ft 470 kts 70°
2026-05-09 14:34 52.37751 106.95757 28580 ft 472 kts 70°
2026-05-09 14:35 52.38587 107.00973 28877 ft 472 kts 70°
2026-05-09 14:35 52.39413 107.06164 29281 ft 471 kts 70°
2026-05-09 14:35 52.40224 107.11282 29680 ft 470 kts 70°
2026-05-09 14:35 52.41041 107.16460 30107 ft 468 kts 70°
2026-05-09 14:36 52.41849 107.21602 30483 ft 466 kts 70°
2026-05-09 14:36 52.42655 107.26740 30802 ft 465 kts 70°
2026-05-09 14:36 52.43459 107.31861 31125 ft 464 kts 70°
2026-05-09 14:36 52.44261 107.36977 31437 ft 463 kts 70°
2026-05-09 14:37 52.45058 107.42089 31759 ft 463 kts 70°
2026-05-09 14:37 52.45850 107.47202 32085 ft 463 kts 70°
2026-05-09 14:37 52.46641 107.52322 32345 ft 464 kts 70°
2026-05-09 14:37 52.47430 107.57449 32628 ft 463 kts 70°
2026-05-09 14:38 52.48216 107.62573 32929 ft 463 kts 70°
2026-05-09 14:38 52.48997 107.67688 33228 ft 462 kts 70°
2026-05-09 14:38 52.49775 107.72799 33538 ft 461 kts 71°
2026-05-09 14:38 52.50550 107.77899 33899 ft 459 kts 71°
2026-05-09 14:39 52.51321 107.82973 34182 ft 458 kts 70°
2026-05-09 14:39 52.52089 107.88043 34409 ft 458 kts 71°
2026-05-09 14:39 52.52858 107.93118 34633 ft 458 kts 71°
2026-05-09 14:39 52.53627 107.98194 34845 ft 459 kts 71°
2026-05-09 14:40 52.55159 108.08386 34930 ft 460 kts 71°
2026-05-09 14:40 52.56671 108.18592 34938 ft 459 kts 71°
2026-05-09 14:41 52.58182 108.28801 34957 ft 460 kts 71°
2026-05-09 14:41 52.59679 108.39010 34941 ft 458 kts 71°
2026-05-09 14:42 52.61157 108.49205 34947 ft 458 kts 71°
2026-05-09 14:42 52.62634 108.59392 34953 ft 458 kts 71°
2026-05-09 14:43 52.64110 108.69594 34950 ft 458 kts 71°
2026-05-09 14:43 52.65562 108.79733 34955 ft 458 kts 71°
2026-05-09 14:44 52.67005 108.89951 34976 ft 458 kts 71°
2026-05-09 14:44 52.68438 109.00166 34974 ft 457 kts 72°
2026-05-09 14:45 52.69871 109.10381 34983 ft 457 kts 72°
2026-05-09 14:45 52.71294 109.20601 34962 ft 458 kts 72°
2026-05-09 14:46 52.72711 109.30845 34954 ft 458 kts 72°
2026-05-09 14:46 52.74126 109.41108 34950 ft 459 kts 72°
2026-05-09 14:47 52.75537 109.51371 34962 ft 458 kts 72°
2026-05-09 14:47 52.76926 109.61649 34959 ft 458 kts 72°
2026-05-09 14:48 52.78287 109.71860 34955 ft 458 kts 72°
2026-05-09 14:48 52.79656 109.82136 34956 ft 458 kts 72°
2026-05-09 14:49 52.81024 109.92416 34955 ft 458 kts 72°
2026-05-09 14:49 52.82383 110.02715 34944 ft 459 kts 72°
2026-05-09 14:50 52.83729 110.13046 34937 ft 459 kts 72°
2026-05-09 14:50 52.85074 110.23390 34921 ft 460 kts 73°
2026-05-09 14:51 52.86414 110.33738 34918 ft 460 kts 73°
2026-05-09 14:51 52.87743 110.44109 34930 ft 460 kts 73°
2026-05-09 14:52 52.89058 110.54484 34919 ft 461 kts 73°
2026-05-09 14:52 52.90361 110.64875 34925 ft 461 kts 73°
2026-05-09 14:53 52.91661 110.75269 34936 ft 461 kts 73°
2026-05-09 14:53 52.92959 110.85673 34916 ft 461 kts 73°
2026-05-09 14:54 52.94248 110.96105 34902 ft 462 kts 73°
2026-05-09 14:54 52.95522 111.06489 34901 ft 463 kts 73°
2026-05-09 14:55 52.96788 111.16979 34890 ft 463 kts 73°
2026-05-09 14:55 52.98036 111.27472 34899 ft 463 kts 74°
2026-05-09 14:56 52.99286 111.37963 34892 ft 463 kts 74°
2026-05-09 14:56 53.00531 111.48454 34889 ft 463 kts 74°
2026-05-09 14:57 53.01761 111.58950 34885 ft 463 kts 74°
2026-05-09 14:57 53.02990 111.69460 34884 ft 464 kts 74°
2026-05-09 14:58 53.04204 111.79991 34866 ft 465 kts 74°
2026-05-09 14:58 53.05406 111.90550 34874 ft 465 kts 75°
2026-05-09 14:59 53.06597 112.01121 34875 ft 465 kts 75°
2026-05-09 14:59 53.07785 112.11681 34872 ft 465 kts 75°
2026-05-09 15:00 53.08958 112.22179 34867 ft 464 kts 75°
2026-05-09 15:00 53.10130 112.32750 34865 ft 465 kts 75°
2026-05-09 15:01 53.11865 112.48638 34888 ft 465 kts 76°
2026-05-09 15:02 53.13012 112.59233 34862 ft 465 kts 76°
2026-05-09 15:02 53.14158 112.69857 34853 ft 466 kts 76°
2026-05-09 15:03 53.15288 112.80496 34851 ft 467 kts 76°
2026-05-09 15:03 53.16219 112.89344 34840 ft 467 kts 76°
2026-05-09 15:04 53.17333 113.00011 34841 ft 467 kts 77°
2026-05-09 15:06 53.21713 113.42762 34838 ft 468 kts 77°
2026-05-09 15:06 53.22782 113.53487 34824 ft 469 kts 77°
2026-05-09 15:07 53.23840 113.64235 34825 ft 470 kts 77°
2026-05-09 15:07 53.24898 113.75000 34833 ft 470 kts 77°
2026-05-09 15:08 53.25944 113.85768 34836 ft 470 kts 78°
2026-05-09 15:08 53.27478 114.01857 34828 ft 470 kts 78°
2026-05-09 15:10 53.31513 114.45082 34833 ft 471 kts 78°
2026-05-09 15:11 53.32498 114.55918 34824 ft 472 kts 78°
2026-05-09 15:11 53.33471 114.66769 34819 ft 472 kts 78°
2026-05-09 15:12 53.34433 114.77558 34828 ft 472 kts 79°
2026-05-09 15:12 53.35386 114.88436 34831 ft 472 kts 79°
2026-05-09 15:13 53.36330 114.99322 34816 ft 472 kts 79°
2026-05-09 15:13 53.37267 115.10216 34839 ft 473 kts 79°
2026-05-09 15:14 53.38196 115.21126 34827 ft 474 kts 79°
2026-05-09 15:14 53.39118 115.32065 34814 ft 474 kts 79°
2026-05-09 15:15 53.40032 115.43010 34813 ft 475 kts 79°
2026-05-09 15:15 53.40935 115.53968 34803 ft 475 kts 80°
2026-05-09 15:16 53.41834 115.64940 34791 ft 475 kts 80°
2026-05-09 15:16 53.42709 115.75846 34801 ft 475 kts 81°
2026-05-09 15:17 53.43573 115.86839 34797 ft 475 kts 81°
2026-05-09 15:17 53.44440 115.97825 34809 ft 475 kts 81°
2026-05-09 15:18 53.45305 116.08822 34796 ft 476 kts 81°
2026-05-09 15:18 53.46149 116.19837 34790 ft 476 kts 81°
2026-05-09 15:19 53.46971 116.30867 34782 ft 477 kts 81°
2026-05-09 15:19 53.47789 116.41910 34780 ft 477 kts 81°
2026-05-09 15:20 53.49017 116.58484 34782 ft 477 kts 81°
2026-05-09 15:21 53.49820 116.69550 34781 ft 477 kts 81°
2026-05-09 15:21 53.50603 116.80628 34773 ft 478 kts 82°
2026-05-09 15:22 53.51403 116.91701 34777 ft 478 kts 81°
2026-05-09 15:22 53.52219 117.02782 34773 ft 478 kts 81°
2026-05-09 15:23 53.53022 117.13869 34777 ft 478 kts 82°
2026-05-09 15:23 53.53804 117.24971 34780 ft 478 kts 82°
2026-05-09 15:24 53.54575 117.36086 34778 ft 478 kts 82°
2026-05-09 15:24 53.55345 117.47114 34778 ft 478 kts 82°
2026-05-09 15:25 53.56115 117.58230 34777 ft 479 kts 82°
2026-05-09 15:25 53.56856 117.69358 34778 ft 479 kts 82°
2026-05-09 15:26 53.57949 117.86076 34777 ft 479 kts 82°
2026-05-09 15:26 53.58666 117.97229 34771 ft 479 kts 82°
2026-05-09 15:27 53.59380 118.08387 34758 ft 479 kts 83°
2026-05-09 15:27 53.60081 118.19537 34760 ft 479 kts 83°
2026-05-09 15:28 53.60772 118.30693 34760 ft 479 kts 83°
2026-05-09 15:28 53.61450 118.41853 34758 ft 479 kts 83°
2026-05-09 15:29 53.62114 118.53010 34756 ft 479 kts 83°
2026-05-09 15:29 53.62766 118.64180 34758 ft 479 kts 83°
2026-05-09 15:30 53.63414 118.75352 34747 ft 479 kts 83°
2026-05-09 15:30 53.64059 118.86528 34735 ft 479 kts 83°
2026-05-09 15:31 53.64686 118.97711 34739 ft 479 kts 83°
2026-05-09 15:31 53.65302 119.08886 34735 ft 479 kts 84°
2026-05-09 15:32 53.65910 119.19993 34731 ft 478 kts 84°
2026-05-09 15:32 53.66501 119.31160 34730 ft 478 kts 84°
2026-05-09 15:33 53.67079 119.42325 34733 ft 478 kts 84°
2026-05-09 15:33 53.67651 119.53498 34749 ft 478 kts 84°
2026-05-09 15:34 53.68210 119.64682 34741 ft 478 kts 84°
2026-05-09 15:34 53.68753 119.75852 34731 ft 478 kts 85°
2026-05-09 15:35 53.69225 119.87038 34715 ft 478 kts 85°
2026-05-09 15:35 53.69660 119.98238 34714 ft 477 kts 85°
2026-05-09 15:36 53.70095 120.09410 34722 ft 477 kts 85°
2026-05-09 15:36 53.70534 120.20560 34718 ft 476 kts 85°
2026-05-09 15:37 53.70960 120.31646 34716 ft 476 kts 85°
2026-05-09 15:37 53.71378 120.42786 34726 ft 476 kts 85°
2026-05-09 15:38 53.71782 120.53939 34710 ft 476 kts 85°
2026-05-09 15:38 53.72177 120.65106 34711 ft 476 kts 85°
2026-05-09 15:39 53.72555 120.76243 34719 ft 475 kts 85°
2026-05-09 15:39 53.72921 120.87387 34713 ft 475 kts 86°
2026-05-09 15:40 53.73278 120.98517 34709 ft 474 kts 86°
2026-05-09 15:40 53.73621 121.09636 34703 ft 474 kts 86°
2026-05-09 15:41 53.73959 121.20780 34708 ft 474 kts 86°
2026-05-09 15:41 53.74287 121.31906 34722 ft 474 kts 86°
2026-05-09 15:42 53.74606 121.43020 34718 ft 474 kts 86°
2026-05-09 15:42 53.74917 121.54067 34709 ft 474 kts 86°
2026-05-09 15:43 53.75219 121.65177 34701 ft 473 kts 86°
2026-05-09 15:43 53.75504 121.76292 34692 ft 473 kts 86°
2026-05-09 15:44 53.75782 121.87394 34683 ft 473 kts 86°
2026-05-09 15:44 53.76055 121.98485 34689 ft 472 kts 86°
2026-05-09 15:45 53.76303 122.09559 34687 ft 471 kts 86°
2026-05-09 15:45 53.76548 122.20633 34685 ft 471 kts 86°
2026-05-09 15:46 53.76832 122.31687 34692 ft 471 kts 86°
2026-05-09 15:46 53.77107 122.42750 34684 ft 471 kts 86°
2026-05-09 15:47 53.77362 122.53817 34677 ft 471 kts 86°
2026-05-09 15:47 53.77609 122.64806 34678 ft 471 kts 87°
2026-05-09 15:48 53.77834 122.75881 34675 ft 471 kts 87°
2026-05-09 15:48 53.78057 122.86964 34677 ft 472 kts 87°
2026-05-09 15:49 53.78279 122.98054 34679 ft 472 kts 87°
2026-05-09 15:49 53.78477 123.09139 34680 ft 471 kts 87°
2026-05-09 15:50 53.78661 123.20216 34688 ft 471 kts 87°
2026-05-09 15:50 53.78840 123.31274 34686 ft 470 kts 87°
2026-05-09 15:51 53.78989 123.40455 34688 ft 470 kts 87°
2026-05-09 15:51 53.78529 123.51445 34680 ft 470 kts 102°
2026-05-09 15:52 53.76426 123.67652 34678 ft 470 kts 102°
2026-05-09 15:53 53.75040 123.78452 34672 ft 470 kts 102°
2026-05-09 15:53 53.73638 123.89248 34676 ft 470 kts 102°
2026-05-09 15:54 53.72214 124.00036 34671 ft 470 kts 102°
2026-05-09 15:54 53.70785 124.10809 34673 ft 470 kts 102°
2026-05-09 15:55 53.69357 124.21586 34673 ft 470 kts 102°
2026-05-09 15:55 53.67917 124.32346 34665 ft 470 kts 102°
2026-05-09 15:56 53.66465 124.43088 34680 ft 470 kts 102°
2026-05-09 15:56 53.65007 124.53817 34683 ft 469 kts 102°
2026-05-09 15:57 53.63541 124.64463 34678 ft 469 kts 103°
2026-05-09 15:57 53.62056 124.75166 34676 ft 469 kts 103°
2026-05-09 15:58 53.60569 124.85859 34666 ft 468 kts 103°
2026-05-09 15:58 53.59072 124.96535 34662 ft 468 kts 103°
2026-05-09 15:59 53.57566 125.07188 34661 ft 468 kts 103°
2026-05-09 15:59 53.56053 125.17840 34660 ft 468 kts 103°
2026-05-09 16:00 53.54530 125.28473 34661 ft 468 kts 103°
2026-05-09 16:00 53.52998 125.39098 34659 ft 468 kts 103°
2026-05-09 16:01 53.51455 125.49719 34661 ft 468 kts 103°
2026-05-09 16:01 53.49900 125.60326 34660 ft 468 kts 103°
2026-05-09 16:02 53.48335 125.70925 34663 ft 468 kts 103°
2026-05-09 16:02 53.46040 125.81097 34654 ft 467 kts 120°
2026-05-09 16:02 53.44254 125.85642 34655 ft 467 kts 128°
2026-05-09 16:03 53.40271 125.94143 34659 ft 467 kts 129°
2026-05-09 16:03 53.36268 126.02710 34661 ft 467 kts 129°
2026-05-09 16:04 53.32257 126.11275 34662 ft 467 kts 129°
2026-05-09 16:04 53.28231 126.19811 34663 ft 468 kts 129°
2026-05-09 16:05 53.24198 126.28351 34663 ft 468 kts 129°
2026-05-09 16:05 53.20147 126.36876 34668 ft 468 kts 129°
2026-05-09 16:06 53.16099 126.45391 34672 ft 469 kts 129°
2026-05-09 16:06 53.12044 126.53896 34676 ft 469 kts 129°
2026-05-09 16:07 53.07972 126.62380 34670 ft 469 kts 129°
2026-05-09 16:07 53.03885 126.70865 34674 ft 470 kts 129°
2026-05-09 16:08 52.99798 126.79331 34681 ft 470 kts 129°
2026-05-09 16:08 52.95729 126.87743 34681 ft 470 kts 129°
2026-05-09 16:09 52.91628 126.96186 34686 ft 470 kts 129°
2026-05-09 16:09 52.87519 127.04620 34685 ft 470 kts 129°
2026-05-09 16:10 52.83405 127.13038 34686 ft 470 kts 129°
2026-05-09 16:10 52.79282 127.21435 34679 ft 470 kts 129°
2026-05-09 16:11 52.75154 127.29831 34684 ft 470 kts 129°
2026-05-09 16:11 52.71028 127.38206 34686 ft 470 kts 129°
2026-05-09 16:12 52.66890 127.46564 34685 ft 470 kts 130°
2026-05-09 16:12 52.62726 127.54870 34686 ft 470 kts 130°
2026-05-09 16:13 52.58542 127.63159 34689 ft 470 kts 130°
2026-05-09 16:13 52.54356 127.71441 34682 ft 471 kts 130°
2026-05-09 16:14 52.50171 127.79704 34692 ft 471 kts 130°
2026-05-09 16:14 52.45985 127.87963 34688 ft 471 kts 130°
2026-05-09 16:15 52.41790 127.96201 34681 ft 471 kts 130°
2026-05-09 16:15 52.37609 128.04370 34684 ft 471 kts 130°
2026-05-09 16:16 52.33395 128.12593 34686 ft 471 kts 130°
2026-05-09 16:16 52.29174 128.20786 34690 ft 471 kts 130°
2026-05-09 16:17 52.24936 128.28972 34693 ft 471 kts 130°
2026-05-09 16:17 52.20696 128.37141 34692 ft 472 kts 130°
2026-05-09 16:18 52.16454 128.45309 34696 ft 472 kts 130°
2026-05-09 16:18 52.12204 128.53475 34694 ft 472 kts 130°
2026-05-09 16:19 52.07943 128.61641 34700 ft 473 kts 130°
2026-05-09 16:19 52.03679 128.69781 34701 ft 473 kts 131°
2026-05-09 16:20 51.99424 128.77850 34711 ft 473 kts 131°
2026-05-09 16:20 51.95139 128.85957 34716 ft 473 kts 131°
2026-05-09 16:21 51.90843 128.94050 34717 ft 473 kts 131°
2026-05-09 16:21 51.86552 129.02135 34720 ft 473 kts 131°
2026-05-09 16:22 51.82257 129.10197 34720 ft 473 kts 131°
2026-05-09 16:22 51.77955 129.18243 34722 ft 473 kts 131°
2026-05-09 16:23 51.73642 129.26260 34727 ft 473 kts 131°
2026-05-09 16:23 51.69327 129.34264 34728 ft 473 kts 131°
2026-05-09 16:24 51.65007 129.42265 34731 ft 473 kts 131°
2026-05-09 16:24 51.60685 129.50266 34738 ft 473 kts 131°
2026-05-09 16:25 51.57082 129.56900 34737 ft 474 kts 131°
2026-05-09 16:25 51.52004 129.66203 34747 ft 474 kts 132°
2026-05-09 16:26 51.47652 129.74156 34745 ft 474 kts 132°
2026-05-09 16:26 51.43295 129.82095 34756 ft 474 kts 132°
2026-05-09 16:27 51.38934 129.90023 34766 ft 474 kts 132°
2026-05-09 16:27 51.34565 129.97929 34769 ft 474 kts 132°
2026-05-09 16:28 51.30194 130.05746 34771 ft 474 kts 133°
2026-05-09 16:28 51.25734 130.13515 34754 ft 474 kts 134°
2026-05-09 16:29 51.21266 130.21255 34766 ft 474 kts 133°
2026-05-09 16:29 51.16803 130.29005 34773 ft 474 kts 133°
2026-05-09 16:30 51.12346 130.36741 34773 ft 474 kts 133°
2026-05-09 16:30 51.07873 130.44462 34786 ft 474 kts 134°
2026-05-09 16:31 51.03396 130.52179 34793 ft 474 kts 134°
2026-05-09 16:31 50.98918 130.59872 34792 ft 474 kts 134°
2026-05-09 16:32 50.95193 130.66257 34801 ft 474 kts 134°
2026-05-09 16:32 50.89948 130.75207 34798 ft 474 kts 134°
2026-05-09 16:33 50.85454 130.82855 34796 ft 474 kts 134°
2026-05-09 16:33 50.80984 130.90417 34799 ft 474 kts 134°
2026-05-09 16:34 50.76470 130.98044 34790 ft 475 kts 134°
2026-05-09 16:34 50.71953 131.05671 34796 ft 476 kts 134°
2026-05-09 16:35 50.67417 131.13284 34802 ft 476 kts 135°
2026-05-09 16:35 50.62876 131.20878 34805 ft 476 kts 135°
2026-05-09 16:36 50.54535 131.34778 34803 ft 477 kts 134°
2026-05-09 16:37 50.49975 131.42365 34804 ft 477 kts 135°
2026-05-09 16:37 50.45427 131.49880 34810 ft 477 kts 135°
2026-05-09 16:38 50.40851 131.57424 34808 ft 478 kts 135°
2026-05-09 16:38 50.36267 131.64968 34809 ft 478 kts 135°
2026-05-09 16:39 50.31677 131.72507 34808 ft 478 kts 135°
2026-05-09 16:39 50.27080 131.80025 34807 ft 478 kts 135°
2026-05-09 16:40 50.22477 131.87531 34807 ft 478 kts 135°
2026-05-09 16:42 50.04049 132.17442 34813 ft 479 kts 130°
2026-05-09 16:42 50.00329 132.26045 34822 ft 479 kts 122°
2026-05-09 16:43 49.96840 132.34782 34822 ft 479 kts 122°
2026-05-09 16:43 49.93302 132.43557 34827 ft 479 kts 122°
2026-05-09 16:44 49.89759 132.52312 34823 ft 479 kts 122°
2026-05-09 16:44 49.86214 132.61068 34822 ft 479 kts 122°
2026-05-09 16:45 49.82668 132.69801 34823 ft 479 kts 122°
2026-05-09 16:45 49.79117 132.78521 34826 ft 479 kts 122°
2026-05-09 16:46 49.75556 132.87233 34821 ft 479 kts 122°
2026-05-09 16:46 49.71984 132.95925 34821 ft 479 kts 122°
2026-05-09 16:47 49.68412 133.04616 34821 ft 479 kts 122°
2026-05-09 16:47 49.64852 133.13238 34824 ft 479 kts 122°
2026-05-09 16:48 49.61264 133.21898 34833 ft 479 kts 122°
2026-05-09 16:48 49.57667 133.30561 34821 ft 479 kts 122°
2026-05-09 16:49 49.55861 133.34899 34546 ft 482 kts 122°
2026-05-09 16:49 49.54048 133.39240 34001 ft 482 kts 122°
2026-05-09 16:49 49.52231 133.43584 33398 ft 483 kts 122°
2026-05-09 16:50 49.48573 133.52292 32144 ft 483 kts 122°
2026-05-09 16:50 49.46758 133.56613 31539 ft 480 kts 122°
2026-05-09 16:50 49.44950 133.60912 30938 ft 477 kts 122°
2026-05-09 16:50 49.43156 133.65170 30358 ft 474 kts 122°
2026-05-09 16:51 49.41370 133.69405 29776 ft 471 kts 122°
2026-05-09 16:51 49.39598 133.73617 29102 ft 468 kts 122°
2026-05-09 16:51 49.37836 133.77799 28526 ft 464 kts 122°
2026-05-09 16:51 49.36091 133.81931 27966 ft 460 kts 122°
2026-05-09 16:52 49.34361 133.86024 27428 ft 456 kts 122°
2026-05-09 16:52 49.32645 133.90082 26890 ft 451 kts 122°
2026-05-09 16:52 49.30966 133.94042 26373 ft 447 kts 122°
2026-05-09 16:52 49.29279 133.98018 25859 ft 443 kts 122°
2026-05-09 16:53 49.27604 134.01961 25357 ft 440 kts 122°
2026-05-09 16:53 49.25939 134.05874 24862 ft 437 kts 122°
2026-05-09 16:53 49.24279 134.09765 24379 ft 435 kts 122°
2026-05-09 16:53 49.22628 134.13625 23903 ft 432 kts 121°
2026-05-09 16:54 49.20980 134.17468 23430 ft 431 kts 121°
2026-05-09 16:54 49.19339 134.21293 22882 ft 430 kts 121°
2026-05-09 16:54 49.17700 134.25108 22329 ft 429 kts 121°
2026-05-09 16:54 49.16068 134.28907 21788 ft 428 kts 121°
2026-05-09 16:55 49.14433 134.32705 21260 ft 427 kts 121°
2026-05-09 16:55 49.12806 134.36484 20726 ft 426 kts 121°
2026-05-09 16:55 49.11173 134.40266 20185 ft 426 kts 121°
2026-05-09 16:55 49.09545 134.44031 19657 ft 425 kts 121°
2026-05-09 16:56 49.07917 134.47798 19151 ft 424 kts 121°
2026-05-09 16:56 49.06343 134.51591 18635 ft 423 kts 119°
2026-05-09 16:56 49.04813 134.55426 18136 ft 422 kts 118°
2026-05-09 16:56 49.03313 134.59260 17571 ft 420 kts 118°
2026-05-09 16:57 49.01823 134.63084 17011 ft 419 kts 118°
2026-05-09 16:57 49.00350 134.66837 16461 ft 418 kts 119°
2026-05-09 16:57 48.98849 134.70623 15916 ft 416 kts 119°
2026-05-09 16:57 48.97345 134.74380 15382 ft 414 kts 120°
2026-05-09 16:58 48.95842 134.78108 14856 ft 412 kts 120°
2026-05-09 16:58 48.94342 134.81816 14348 ft 410 kts 120°
2026-05-09 16:58 48.92852 134.85498 13842 ft 407 kts 120°
2026-05-09 16:58 48.91378 134.89152 13303 ft 404 kts 120°
2026-05-09 16:59 48.89916 134.92774 12732 ft 400 kts 120°
2026-05-09 16:59 48.88474 134.96331 12169 ft 390 kts 120°
2026-05-09 16:59 48.87068 134.99798 11626 ft 381 kts 120°
2026-05-09 16:59 48.85693 135.03189 11086 ft 373 kts 120°
2026-05-09 17:00 48.84347 135.06505 10561 ft 365 kts 120°
2026-05-09 17:00 48.83024 135.09756 10037 ft 358 kts 120°
2026-05-09 17:00 48.81722 135.12949 9517 ft 352 kts 120°
2026-05-09 17:00 48.80443 135.16082 8957 ft 346 kts 120°
2026-05-09 17:01 48.79193 135.19144 8407 ft 337 kts 120°
2026-05-09 17:01 48.77992 135.22083 7886 ft 328 kts 120°
2026-05-09 17:01 48.76813 135.24965 7456 ft 316 kts 120°
2026-05-09 17:01 48.75671 135.27756 7031 ft 307 kts 121°
2026-05-09 17:02 48.74373 135.30256 6609 ft 298 kts 132°
2026-05-09 17:02 48.72996 135.32541 6194 ft 290 kts 132°
2026-05-09 17:02 48.71653 135.34764 5757 ft 282 kts 132°
2026-05-09 17:02 48.70346 135.36923 5323 ft 274 kts 134°
2026-05-09 17:03 48.68808 135.38476 4883 ft 262 kts 168°
2026-05-09 17:04 48.60493 135.29150 1879 ft 187 kts 229°
2026-05-09 17:05 48.59568 135.27839 1626 ft 176 kts 227°
2026-05-09 17:05 48.58721 135.26671 1412 ft 154 kts 227°
2026-05-09 17:05 48.57966 135.25634 1225 ft 141 kts 228°
2026-05-09 17:05 48.57252 135.24653 1060 ft 137 kts 226°
2026-05-09 17:06 48.56692 135.23886 931 ft 136 kts 225°
2026-05-09 17:07 48.56652 135.23832 925 ft 136 kts 225°
2026-05-09 17:07 48.56181 135.23206 734 ft 133 kts 226°
2026-05-09 17:07 48.55260 135.21938 586 ft 134 kts 224°
2026-05-09 17:07 48.54572 135.20985 421 ft 134 kts 223°
2026-05-09 17:08 48.53882 135.20042 253 ft 133 kts 224°
2026-05-09 17:08 48.52908 135.18709 248 ft 63 kts 222°
2026-05-09 17:08 48.52624 135.18319 243 ft 46 kts 222°
2026-05-09 17:09 48.52417 135.18032 242 ft 29 kts 221°
2026-05-09 17:09 48.52326 135.17912 244 ft 13 kts 221°
2026-05-09 17:09 48.52280 135.17821 247 ft 10 kts 264°
2026-05-09 17:09 48.52318 135.17736 246 ft 10 kts 313°
2026-05-09 17:10 48.52368 135.17654 246 ft 11 kts 311°
2026-05-09 17:10 48.52418 135.17570 246 ft 6 kts 312°
2026-05-09 17:10 48.52447 135.17521 245 ft 7 kts 312°
2026-05-09 17:10 48.52480 135.17467 245 ft 7 kts 312°
2026-05-09 17:11 48.52514 135.17408 245 ft 8 kts 306°
2026-05-09 17:11 48.52498 135.17346 245 ft 7 kts 220°
2026-05-09 17:11 48.52479 135.17306 246 ft 4 kts 255°
2026-05-09 17:11 48.52492 135.17270 246 ft 4 kts 313°
2026-05-09 17:12 48.52511 135.17239 246 ft 2 kts 313°
2026-05-09 17:12 48.52522 135.17221 246 ft 0 kts 313°
2026-05-09 17:12 48.52524 135.17217 246 ft 1 kts 313°
2026-05-09 17:12 48.52529 135.17209 246 ft 0 kts 312°